Regional Weather Roundup
Issued by NWS

Home | Current Version | Previous Version | Graphics & Text | Print | Product List | Glossary On
Versions: 1 2 3 4 5 6 7 8 9 10 11 12 13 14 15 16 17 18 19 20 21 22 23 24 25 26 27 28 29 30 31 32 33 34 35 36 37 38 39 40 41 42 43 44 45 46 47 48 49 50
019
ASUS43 KDMX 260506
RWRIA

WEATHER ROUNDUP FOR IOWA
NATIONAL WEATHER SERVICE DES MOINES IA
1100 PM CST SAT FEB 25 2017

NOTE: "FAIR" INDICATES FEW OR NO CLOUDS BELOW 12,000 FEET WITH NO
SIGNIFICANT WEATHER AND/OR OBSTRUCTIONS TO VISIBILITY.

* - THESE STATIONS ARE NOT NWS STATIONS...THUS NOT UNDER NWS
QUALITY CONTROL.  THEY ALSO DO NOT REPORT WEATHER SUCH
AS PRECIPITATION OR FOG.

IAZ001>003-012>014-020>022-031>034-043>046-260600-
   NORTHWEST IOWA

CITY           SKY/WX    TMP DP  RH WIND       PRES   REMARKS
CARROLL *      PTCLDY    25  21  86 S9        29.88F WCI  15
CHEROKEE *     PTCLDY    19  15  82 CALM      29.84F
DENISON *      PTCLDY    25  18  74 S8        29.85F WCI  16
LE MARS *      CLOUDY    23  18  80 S8        29.85F WCI  14
SHELDON *      PTCLDY    21  21 100 S8        29.81S WCI  12
SIOUX CITY     CLOUDY    23  16  74 E6        29.86F WCI  16
SPENCER        CLEAR     14  11  87 S7        29.83F WCI   4
STORM LAKE *   CLEAR     18  14  86 S12       29.84F WCI   5
$$

IAZ055>058-069>071-079>083-090>094-260600-
   SOUTHWEST IOWA

CITY           SKY/WX    TMP DP  RH WIND       PRES   REMARKS
ATLANTIC *     PTCLDY    30  21  69 S12G20    29.90F WCI  21
AUDUBON *      CLEAR     28  19  69 S10       29.89F WCI  19
CLARINDA *     CLOUDY    34  21  60 S12       29.96F WCI  25
COUNCIL BLFS * PTCLDY    30  21  69 S9        29.89S WCI  22
CRESTON *      CLOUDY    28  18  64 S10       29.94F WCI  19
HARLAN  *      CLEAR     27  21  80 S10       29.91F WCI  17
LAMONI         CLOUDY    30  16  56 S12       29.97F WCI  20
RED OAK *      CLOUDY    34  21  60 S13       29.92F WCI  25
SHENANDOAH *   CLOUDY    36  21  55 S13       29.93F WCI  27
$$

IAZ047>049-059>061-072>074-084-260600-
   CENTRAL IOWA

CITY           SKY/WX    TMP DP  RH WIND       PRES   REMARKS
AMES           CLOUDY    28  23  81 S8        29.93F WCI  20
ANKENY *       CLOUDY    30  19  64 S10       29.96F WCI  21
BOONE *        CLOUDY    28  21  74 S10       29.90F WCI  19
CHARITON *     CLOUDY    30  19  64 S14       29.97F WCI  20
DES MOINES     CLOUDY    31  20  63 S12       29.95F WCI  22
GRINNELL*      PTCLDY    26  20  77 S8        29.98F WCI  17
KNOXVILLE *    CLOUDY    30  18  59 S9        29.96F WCI  22
MARSHALLTOWN   MOCLDY    25  20  81 SE9       29.94F WCI  15
NEWTON *       CLOUDY    27  21  80 S9        29.96F WCI  17
PELLA *        CLEAR     29  20  68 SE7       29.99F WCI  22
PERRY *        MOCLDY    29  23  77 S13       29.91F WCI  19
$$

IAZ004>006-015-016-023>025-035-036-260600-
   NORTH CENTRAL IOWA

CITY           SKY/WX    TMP DP  RH WIND       PRES   REMARKS
ALGONA *       LGT SNOW  23  19  86 S14       29.85F WCI  11
CLARION *      CLOUDY    27  21  80 S16       29.89F WCI  14
ESTHERVILLE    CLOUDY    16  13  88 S12       29.82F WCI   3
FORT DODGE *   MOCLDY    27  16  63 S10       29.89F WCI  17
MASON CITY     CLOUDY    20  15  81 S10       29.90F WCI   9
FOREST CITY *  CLOUDY    21  18  86 S9        29.87F WCI  11
WEBSTER CITY * CLOUDY    27  21  80 S13       29.88F WCI  16
IOWA FALLS *   CLOUDY    26  20  78 S10       29.92F WCI  16
$$

IAZ007>011-017>019-026>030-037>042-050>054-066-260600-
   NORTHEAST IOWA

CITY           SKY/WX    TMP DP  RH WIND       PRES   REMARKS
CEDAR RAPIDS   CLOUDY    24  19  81 S5        30.00F WCI  18
CHARLES CITY * CLOUDY    23  18  80 S13       29.92F WCI  11
CLINTON *      CLOUDY    23  20  88 SW5       30.05F WCI  17
DECORAH *      CLOUDY    21  16  79 VRB6      29.93F WCI  14
DUBUQUE        CLOUDY    22  17  81 S7        30.00S WCI  13
MONTICELLO *   CLOUDY    25  19  80 S6        30.01F WCI  18
OELWEIN *      MOCLDY    23  19  86 S10       29.96F WCI  12
WATERLOO       MOCLDY    25  17  72 S9        29.95F WCI  15
$$

IAZ064-065-067-068-078-260600-
   EAST CENTRAL IOWA

CITY           SKY/WX    TMP DP  RH WIND       PRES   REMARKS
DAVENPORT      CLOUDY    26  18  71 SW5       30.05F WCI  20
IOWA CITY      CLOUDY    27  19  72 S5        30.05F WCI  22
MUSCATINE *    CLOUDY    28  21  74 S8        30.07S WCI  20
QUAD CITIES    CLOUDY    28  18  66 SW3       30.06S
$$

IAZ062-063-075>077-085>089-095>099-260600-
   SOUTHEAST IOWA

CITY           SKY/WX    TMP DP  RH WIND       PRES   REMARKS
BURLINGTON     CLOUDY    26  19  74 S5        30.06F WCI  20
FAIRFIELD *    CLOUDY    28  18  64 S6        30.03F WCI  22
KEOKUK *       MOCLDY    25  16  68 CALM      30.06F
CENTERVILLE *  MOCLDY    28  19  69 CALM      30.02F
OTTUMWA        CLOUDY    29  18  63 S8        30.01F WCI  21
WASHINGTON *   CLOUDY    23  19  86 S8        30.05F WCI  14
$$

ABBREVIATIONS USED IN REMARKS
   TC - TEMPERATURES IN CELSIUS
  WCI - WIND CHILL INDEX
   HX - HEAT INDEX
  VSB - VISIBILITY
$$





USA.gov is the U.S. government's official web portal to all federal, state and local government web resources and services.